RH
40 40 38 35 33 34 41 48 51 53 54 55 55 56 58 60 61 61 60 62 64 65 68 73 78 83 84 83 80 78 76 71 67 61 52 46 45 44 42 41 41 40 38 36 36 35 35 34 33 34 35 35 33 30 29 29 30 34 38 42 46 47 44 40 38 37 36 32 25 21 19 17 15 15 14 14 14 14 15 16 17 19 19 17 17
40 41 39 35 32 33 40 47 50 52 53 53 55 57 60 62 62 60 61 64 66 68 71 75 80 83 82 80 78 78 75 70 62 54 46 44 43 43 42 41 41 41 39 39 39 39 39 37 36 36 36 36 35 33 33 35 35 36 38 41 44 43 39 34 33 35 33 29 25 22 19 17 16 16 15 15 15 15 16 17 18 19 20 19 18
41 42 39 34 31 33 41 47 49 51 53 54 55 58 61 63 62 61 63 66 68 70 73 76 79 81 79 76 75 75 71 63 54 48 43 42 42 42 42 42 43 42 42 42 43 42 41 38 35 35 37 37 36 34 35 38 40 38 37 40 43 42 38 33 32 33 30 27 25 22 20 18 17 17 16 16 16 16 17 18 18 19 20 20 19
44 42 39 34 32 35 43 48 49 50 53 53 56 59 62 63 62 62 65 68 70 71 72 76 78 78 75 72 68 64 59 53 48 44 42 41 42 42 43 44 44 44 45 45 44 43 41 38 35 35 37 37 38 36 34 38 41 38 37 40 44 41 36 33 33 31 28 26 25 23 21 19 18 16 16 16 17 18 17 18 18 19 20 20 20
44 42 39 35 35 38 43 47 48 51 53 53 56 61 63 62 61 63 67 69 70 70 71 75 77 75 71 65 59 54 50 48 46 43 41 41 43 44 45 45 45 46 46 45 44 43 40 38 37 36 36 38 39 36 34 38 42 40 37 41 43 39 33 32 32 30 27 26 25 24 22 20 18 17 17 16 16 17 17 18 19 19 20 21 21
44 42 39 36 37 40 44 47 49 51 53 54 56 60 62 62 62 64 66 68 69 69 70 74 75 72 66 59 54 52 50 48 45 42 42 43 45 45 45 45 46 46 46 45 43 41 40 39 37 36 36 39 38 36 35 38 41 40 38 40 40 35 30 30 29 28 27 27 26 25 24 22 20 20 19 19 18 18 17 17 19 20 22 24 23
44 42 38 36 38 40 44 47 49 51 54 55 57 60 62 63 63 63 66 69 70 68 69 73 72 66 61 57 54 52 50 47 43 42 44 45 46 46 45 46 46 46 45 43 41 40 39 39 37 36 38 38 36 35 34 36 39 42 42 39 34 29 28 28 28 28 27 27 26 26 25 24 24 23 21 21 22 23 22 20 20 22 25 28 26
44 41 37 36 37 40 45 49 50 52 56 57 58 62 63 63 62 62 65 69 70 67 67 71 69 61 57 56 54 51 49 46 44 44 46 46 45 45 45 45 45 43 42 40 39 38 38 39 39 39 38 37 36 35 33 33 38 44 43 37 30 27 27 28 28 27 27 27 27 26 27 28 28 28 26 23 23 25 25 25 25 26 28 31 30
42 38 37 36 37 40 46 49 49 52 56 57 58 61 63 62 61 60 64 70 70 66 66 68 65 58 54 54 52 49 48 46 45 46 46 45 44 43 42 41 40 39 38 37 37 38 39 41 42 40 38 37 37 37 34 33 37 42 41 36 29 27 28 29 28 28 27 28 27 27 30 31 32 32 30 28 27 27 27 29 29 29 30 32 32
39 36 36 35 37 41 46 48 50 52 55 57 57 59 61 61 59 59 64 70 70 66 64 65 62 56 53 51 50 49 48 46 45 44 44 42 40 38 37 37 38 38 37 37 38 39 42 44 43 40 38 37 38 38 35 33 37 40 39 34 29 28 28 29 29 28 28 28 28 29 31 34 36 36 33 32 31 29 29 31 30 30 31 31 31
38 35 36 35 37 43 47 48 50 53 55 57 57 58 60 60 58 58 63 68 70 66 63 62 58 54 52 51 50 49 48 45 41 40 40 38 36 35 35 38 39 39 38 38 40 42 45 47 45 41 39 38 39 38 34 33 37 40 38 34 31 29 29 30 30 29 29 28 28 30 33 36 38 38 35 35 34 31 31 33 32 32 34 33 33
37 35 35 36 38 43 46 47 50 52 55 57 57 57 59 59 56 57 62 67 69 66 63 59 55 52 51 51 50 48 46 41 37 36 35 35 35 35 37 40 41 41 40 41 44 46 49 48 45 41 38 38 39 38 33 34 38 40 38 35 32 30 30 31 31 30 29 29 28 30 34 37 39 39 38 37 36 33 33 34 33 33 36 36 36
36 35 35 36 39 43 45 47 50 52 54 57 57 57 59 58 56 57 61 66 68 66 63 57 52 50 51 50 49 46 43 39 36 34 33 34 35 36 39 43 43 43 44 46 48 51 51 48 44 40 38 37 39 37 34 35 39 39 38 37 35 32 31 32 32 31 30 29 29 31 35 38 39 39 39 39 37 36 36 36 34 34 36 37 36
36 35 35 36 40 43 45 46 49 52 54 57 57 57 58 58 57 57 60 65 67 65 61 56 51 50 50 49 48 46 43 40 38 36 35 35 37 40 44 46 47 48 49 51 53 54 53 49 43 39 38 39 40 37 35 37 41 40 38 38 37 33 32 34 33 31 30 29 30 32 35 38 39 39 40 40 38 38 38 37 35 35 36 37 36
36 34 35 38 40 42 43 44 48 53 56 57 57 58 59 59 58 57 59 65 67 63 58 55 53 52 51 50 49 47 45 43 41 39 38 38 40 45 48 50 52 53 54 56 58 57 56 52 46 44 46 46 41 36 35 40 44 42 38 38 38 34 33 35 34 32 32 31 31 32 34 37 39 40 41 40 39 40 40 38 37 36 37 37 37
36 34 36 38 40 42 43 43 47 54 57 58 57 59 60 60 59 57 59 64 66 62 56 55 55 55 53 53 51 50 51 49 47 44 43 43 46 49 52 54 56 58 59 61 62 61 61 59 56 57 57 50 40 34 36 42 47 45 40 39 39 35 33 35 35 33 33 32 32 33 35 37 39 40 40 40 40 41 41 39 38 38 39 39 38
36 35 37 39 41 42 43 43 48 54 57 57 58 60 62 61 61 58 58 63 66 63 58 55 55 55 55 55 55 55 57 58 55 52 49 49 51 52 55 57 59 62 63 62 61 61 61 60 60 60 55 46 39 36 38 43 47 46 41 40 39 35 34 35 36 35 35 34 33 34 36 38 39 40 40 40 40 42 42 40 39 41 43 42 41
36 36 37 39 42 43 44 46 50 55 58 59 60 62 63 63 61 60 60 62 66 67 64 59 56 55 55 57 57 58 62 64 62 58 55 54 54 55 57 59 61 64 65 64 63 61 61 60 60 59 53 45 41 39 40 45 49 46 42 40 39 36 33 35 36 36 35 35 34 35 37 39 39 40 41 41 41 44 43 41 42 46 48 46 43
36 37 38 40 44 46 46 47 51 55 59 61 63 64 65 64 62 61 62 63 64 67 67 64 60 58 58 58 59 61 67 68 66 63 60 58 57 58 59 61 65 67 68 66 64 62 61 61 59 56 52 46 43 41 41 45 49 47 42 41 40 37 33 34 35 35 35 35 35 37 40 41 41 41 42 42 43 45 46 47 48 50 49 45 43
37 38 40 43 47 48 46 49 55 58 61 65 67 67 66 65 63 63 66 66 64 63 63 63 62 62 61 63 64 66 70 71 71 68 64 62 61 61 63 65 68 68 66 64 63 62 62 60 56 54 53 47 43 42 42 44 49 48 44 42 41 38 34 33 34 35 35 36 37 38 41 43 43 43 44 45 46 50 53 53 52 50 48 45 43
38 40 44 47 47 47 47 53 60 66 70 73 74 70 67 66 66 66 68 67 65 63 62 63 64 65 67 68 68 70 73 74 73 69 67 67 67 67 67 67 68 68 65 65 65 64 62 61 58 56 53 47 42 42 43 46 50 49 44 43 43 40 35 34 35 37 37 37 37 38 41 44 45 46 48 49 52 55 56 54 52 51 49 45 42
40 43 46 46 45 46 50 57 64 72 77 80 80 76 70 68 67 67 67 66 65 64 64 64 65 66 67 68 69 72 74 73 70 69 70 71 70 68 67 66 66 68 67 67 68 68 65 63 59 54 48 44 44 47 49 53 56 52 47 48 47 43 40 38 39 40 39 38 38 41 44 47 48 50 52 54 56 57 56 55 54 52 48 42 40
42 44 46 46 46 47 51 59 70 77 80 81 82 78 70 66 65 64 64 64 63 63 63 63 63 64 65 66 66 68 70 70 70 70 69 69 69 68 67 66 66 67 68 70 72 71 67 62 57 54 52 50 53 53 51 55 58 55 51 51 49 45 43 43 43 43 41 40 42 46 49 51 53 55 57 58 58 58 58 56 54 49 44 40 40
43 44 45 46 45 46 52 64 74 78 78 79 80 74 65 62 62 62 62 62 62 62 61 62 62 63 63 64 64 66 67 68 69 68 66 65 66 67 68 68 69 69 70 73 74 71 67 64 63 64 63 61 59 56 52 55 58 54 50 49 48 46 46 46 46 45 45 45 48 50 51 51 54 57 57 56 55 55 54 51 49 47 43 40 39
47 46 45 46 48 52 59 68 72 72 72 72 72 67 62 60 61 61 62 62 62 62 62 62 63 63 64 65 67 69 69 68 68 66 65 64 65 67 69 70 71 73 75 78 78 73 72 75 77 75 70 64 59 55 56 59 58 52 48 48 48 48 49 48 48 47 47 47 49 50 49 50 53 54 53 52 51 49 47 47 48 47 43 39 38
50 47 44 45 49 55 63 67 69 69 68 67 66 65 63 61 61 62 63 63 63 62 62 63 64 65 66 68 71 72 71 69 67 65 64 64 65 68 71 74 78 83 86 86 82 76 75 80 81 75 69 63 58 58 63 63 56 49 48 49 49 49 49 49 48 47 46 45 47 50 51 53 56 56 55 53 50 47 47 49 48 44 41 40 39
49 45 42 41 47 56 62 65 67 68 68 66 66 66 64 62 63 63 63 62 62 62 64 65 67 68 69 71 71 69 67 66 66 65 65 66 67 69 73 78 83 85 86 84 81 77 77 78 76 70 65 62 62 65 69 67 58 51 50 51 50 49 49 48 46 44 43 45 49 53 56 58 60 59 56 54 51 49 50 51 48 44 43 43 42
45 44 43 45 52 59 62 63 66 68 67 66 67 67 65 64 63 61 61 60 61 63 65 67 68 70 71 70 67 65 65 66 67 66 66 66 66 68 72 77 79 79 80 82 82 81 79 80 80 74 66 64 67 69 68 64 58 55 55 55 55 53 49 45 43 43 44 48 53 57 60 61 61 59 56 54 53 53 52 50 49 49 48 47 47
46 48 51 55 59 60 61 64 68 69 67 67 68 67 65 63 61 59 59 60 63 65 67 68 70 69 66 64 63 64 68 68 67 66 65 65 67 71 74 75 75 75 75 78 81 82 81 81 83 80 73 69 70 71 68 62 57 56 57 58 58 55 49 44 43 44 46 50 56 59 61 62 60 58 56 55 55 55 54 52 51 52 52 52 52
53 58 61 62 61 59 62 67 70 70 69 68 67 65 63 62 60 60 62 64 66 67 68 69 68 64 61 61 62 64 68 69 68 68 68 67 69 75 76 73 71 69 67 70 78 83 84 84 84 83 79 76 74 74 70 61 55 54 56 56 56 54 49 46 45 47 48 52 57 61 62 61 59 57 57 57 57 56 56 55 54 54 54 55 55
60 66 70 70 64 61 63 68 70 71 69 66 64 63 63 63 63 64 66 67 66 65 65 65 62 59 59 60 62 64 68 71 71 71 70 68 68 71 71 68 66 65 65 68 75 79 81 84 86 83 80 78 78 77 71 61 55 55 54 53 52 52 52 51 50 50 52 56 60 62 62 61 59 57 58 58 58 58 58 58 58 57 57 58 58
61 65 69 68 65 65 68 71 72 70 67 64 64 64 64 64 65 67 67 64 61 60 60 60 62 62 62 61 63 66 70 73 72 71 70 69 67 66 66 66 66 68 69 72 76 78 78 81 83 82 80 79 79 78 73 64 58 55 53 51 53 54 56 57 55 53 56 61 63 64 63 60 58 58 59 59 59 60 61 61 61 61 61 61 61
64 64 65 65 66 70 73 73 71 67 64 63 64 65 66 66 66 65 62 58 56 57 59 61 65 67 66 66 69 72 75 76 74 71 70 68 65 64 66 68 70 74 75 76 79 81 79 77 76 76 76 76 76 76 72 63 56 52 52 53 56 57 57 58 58 58 58 60 63 64 63 60 58 58 60 60 61 62 63 64 64 64 63 64 63
70 68 68 68 68 68 69 69 67 65 63 63 65 66 67 65 62 59 56 55 57 59 62 65 68 68 69 72 76 80 82 81 77 72 69 67 65 65 67 69 72 75 76 76 78 80 80 78 76 76 75 73 69 67 63 56 52 51 52 54 57 59 60 62 63 62 61 63 65 65 63 60 59 59 60 61 62 64 65 66 66 66 66 66 66
75 73 72 69 66 65 65 65 65 64 63 64 65 65 63 60 56 56 57 60 62 64 66 69 69 70 74 79 83 85 85 82 77 74 71 69 67 67 68 70 71 72 72 72 74 75 76 76 76 77 77 73 65 58 53 50 51 53 56 58 60 62 66 68 68 66 66 67 67 64 62 61 61 60 60 61 61 63 66 67 68 68 68 68 68
77 74 71 67 64 64 65 65 66 66 65 64 63 61 58 56 56 58 61 66 70 72 72 71 72 73 77 81 83 83 81 79 76 74 72 69 67 66 67 68 69 69 67 67 69 72 72 72 72 72 72 70 65 60 53 49 48 51 55 60 64 67 68 70 70 68 69 69 67 64 62 61 61 61 61 61 61 63 66 68 69 70 69 70 71
79 75 71 68 67 66 65 65 64 64 63 62 60 59 58 59 60 62 65 71 76 78 75 74 75 78 81 84 83 80 78 76 74 71 68 66 65 65 65 66 65 65 64 63 64 65 66 68 69 69 69 69 67 62 56 51 49 48 50 55 61 64 66 69 72 73 70 68 66 63 61 61 62 62 61 59 60 62 66 69 71 71 71 72 73
79 76 71 68 66 63 61 60 60 60 61 61 61 61 61 62 63 69 76 82 83 80 79 79 81 83 84 85 83 79 76 74 73 71 68 67 65 65 64 63 63 63 62 59 58 58 59 63 65 66 67 69 67 62 57 54 52 52 53 55 57 58 62 68 74 74 70 67 64 62 60 60 62 62 61 60 61 63 67 71 72 73 74 75 77
81 75 68 64 63 60 59 60 61 62 63 63 62 62 62 63 65 71 77 80 78 76 77 80 83 84 82 79 75 74 74 74 74 72 69 67 66 65 64 62 61 60 59 57 57 57 58 61 62 62 63 65 65 62 59 56 54 54 57 58 58 59 61 65 69 71 70 68 65 63 62 62 63 63 64 63 63 65 69 73 74 75 76 78 79
80 74 68 65 64 63 63 64 65 65 65 64 64 65 66 67 67 68 69 70 71 71 72 75 78 79 75 70 67 69 71 70 70 69 68 68 68 67 65 62 60 59 59 59 59 58 59 61 62 62 63 66 68 67 64 61 57 56 58 60 62 61 60 59 61 63 66 67 67 66 65 65 66 66 66 64 63 65 69 73 75 77 77 78 79
76 73 70 68 67 66 66 68 68 68 69 69 69 69 68 67 67 67 67 68 70 69 68 68 68 67 65 64 65 67 67 66 67 69 69 68 67 65 63 62 61 61 61 61 60 60 61 61 62 61 63 66 69 69 66 61 57 54 54 57 58 56 55 57 57 55 58 65 69 67 65 67 69 69 67 65 64 66 70 73 75 77 77 78 79
75 73 71 70 69 69 70 70 71 72 72 72 71 70 69 68 67 67 66 65 64 63 62 62 62 61 61 63 65 65 65 66 68 69 67 65 63 61 60 60 59 60 60 61 61 59 58 57 56 58 61 65 67 67 67 65 61 56 55 56 54 48 48 54 55 54 59 68 72 69 67 69 71 70 68 67 66 68 72 75 76 77 78 79 79
77 75 74 73 72 71 71 71 72 71 71 70 70 70 70 68 65 63 62 61 61 61 60 59 59 59 60 62 64 65 65 65 65 65 65 64 64 62 60 57 57 59 60 60 58 56 54 53 53 54 57 61 63 65 67 66 62 59 57 56 50 44 42 45 46 49 56 64 67 68 70 71 69 67 67 67 67 69 72 75 77 79 80 79 78
76 74 73 71 71 72 72 72 72 71 71 71 70 69 67 64 61 60 60 60 60 60 59 59 59 59 60 62 63 63 62 62 63 64 65 65 66 65 63 62 62 60 57 54 52 50 51 52 52 51 52 54 57 62 63 60 56 53 52 50 47 45 45 45 44 46 52 57 60 64 67 67 66 67 69 69 70 71 74 76 78 79 79 79 80
76 73 70 69 70 71 72 71 71 71 71 69 66 64 62 61 61 61 60 59 59 59 58 58 60 61 62 62 62 60 59 61 62 64 65 66 68 68 64 60 58 54 50 47 47 47 47 47 46 45 45 47 50 54 54 51 47 46 46 46 48 50 49 48 49 53 56 57 58 60 63 66 69 71 72 72 73 73 74 76 77 77 78 80 82
77 74 73 73 71 70 69 68 67 67 65 63 61 61 61 61 61 60 58 57 58 58 59 61 63 64 64 62 60 58 59 61 62 63 65 67 67 63 56 50 47 47 46 45 45 44 42 41 39 38 39 42 44 45 43 42 43 43 44 47 51 52 52 51 53 56 57 58 60 64 67 69 71 72 72 73 73 72 73 75 76 77 78 79 81
79 76 75 72 69 67 66 65 64 63 62 61 61 61 60 59 59 58 58 58 58 59 61 63 64 64 63 61 59 59 60 60 59 58 59 59 58 54 50 46 45 45 44 42 40 39 36 33 32 33 36 40 41 40 39 41 45 48 51 54 57 56 53 53 54 56 59 62 66 69 70 70 70 70 71 71 71 70 72 74 75 76 78 80 82
77 74 71 67 64 63 62 60 59 60 60 61 61 60 60 60 61 60 60 60 61 61 61 61 62 62 61 61 61 61 61 59 57 55 54 53 52 50 47 46 45 44 42 39 37 35 32 30 30 32 34 36 37 37 38 43 49 54 59 63 63 58 54 52 53 56 61 64 65 65 65 66 67 67 68 69 69 70 72 74 75 77 79 81 83
72 69 66 63 61 59 58 58 57 58 60 62 63 64 64 64 64 63 62 62 61 60 60 60 60 61 61 61 60 60 58 56 55 54 52 50 49 48 46 44 44 42 40 37 35 33 34 35 36 36 35 35 35 35 38 43 49 55 60 61 58 54 53 53 53 53 54 55 55 55 56 58 60 62 65 67 69 70 72 74 76 78 80 81 83
72 70 67 65 64 63 63 62 63 64 66 66 67 67 66 63 62 60 60 59 58 58 57 57 57 58 58 58 58 58 57 54 51 49 47 47 47 47 46 45 44 42 40 38 37 38 41 44 45 44 43 42 40 41 43 47 50 53 55 55 53 52 53 54 54 51 49 48 49 50 51 53 57 62 65 67 69 71 74 76 78 80 81 82 83
74 73 73 72 72 71 71 70 70 71 71 69 68 66 63 59 56 54 53 54 55 54 53 53 53 54 55 57 59 58 54 49 45 44 46 47 47 46 46 45 43 41 39 38 40 43 46 48 48 47 47 47 47 48 49 51 52 52 52 52 53 53 54 53 52 51 51 53 54 56 57 58 61 64 66 69 72 75 77 78 79 79 79 78 78